M I D A S
Marine Information and Data Acquisition System
Tripno 394 of the Zeeleeuw from 2002-11-28 07:58:29 to 2002-11-28 15:38:08
Back to CruiseResearch ActivitiesStationsMapUnderway DataData graphs

EquipmentUnitsComment
TimeDGPSUTC
LatitudeDGPSDM.mWGS84
LongitudeDGPSDM.mWGS84
TemperatureSBE03/SBE38deg celciusITS90
ConductivitySBE21S/mITS90
SalinitySBE21 Practical Salinity Units
ChlorophylAChelsea fluorimeterg/lCalibrated in Aceton
Missing or incorrect values are displayed as -999
Sea surface data collected by the RV Zeeleeuw from 2002-11-28 07:58:29 to 2002-11-28 15:38:08
                                                                                    Next 1000 lines
Time Latitude Longitude Temperature Conductivity Salinity ChlorophylA
2002-11-28 07:58:39 51°13.663 2°55.911 15.896506 0.070381 0.355136  
2002-11-28 07:58:44 51°13.665 2°55.904 15.895346 0.070381 0.355131  
2002-11-28 07:58:48 51°13.667 2°55.899 15.895346 0.070381 0.355131  
2002-11-28 07:58:54 51°13.669 2°55.891 15.898824 0.070381 0.355136  
2002-11-28 07:58:59 51°13.671 2°55.885 15.897922 0.070381 0.355136  
2002-11-28 07:59:05 51°13.672 2°55.877 15.897278 0.070381 0.355136  
2002-11-28 07:59:09 51°13.674 2°55.871 15.900799 0.070381 0.355136  
2002-11-28 07:59:14 51°13.675 2°55.864 15.902001 0.070381 0.355131  
2002-11-28 07:59:19 51°13.677 2°55.857 15.902001 0.070381 0.355131  
2002-11-28 07:59:24 51°13.678 2°55.85 15.904448 0.070381 0.355142  
2002-11-28 07:59:29 51°13.679 2°55.843 38.465785 0.070381 0.355142  
2002-11-28 07:59:34 51°13.68 2°55.836 28.174115 0.070381 0.355136  
2002-11-28 07:59:39 51°13.681 2°55.83 27.161644 0.070381 0.355136  
2002-11-28 07:59:44 51°13.682 2°55.823 26.915853 0.070381 0.355136  
2002-11-28 07:59:49 51°13.683 2°55.816 26.915853 0.070381 0.355136  
2002-11-28 07:59:54 51°13.683 2°55.81 28.110714 0.070381 0.355136  
2002-11-28 07:59:59 51°13.683 2°55.804 27.009736 0.070381 0.355136  
2002-11-28 08:00:05 51°13.684 2°55.797 27.24914 0.070381 0.355136  
2002-11-28 08:00:08 51°13.684 2°55.793 26.715454 0.070381 0.355136  
2002-11-28 08:00:15 51°13.684 2°55.786 27.369796 0.070381 0.355136  
2002-11-28 08:00:19 51°13.684 2°55.782 27.369796 0.070381 0.355136  
2002-11-28 08:00:25 51°13.684 2°55.776 28.204042 0.070381 0.355136  
2002-11-28 08:00:29 51°13.684 2°55.772 26.653084 0.070381 0.355142  
2002-11-28 08:00:34 51°13.684 2°55.768 27.106214 0.070381 0.355142  
2002-11-28 08:00:38 51°13.685 2°55.765 27.578278 0.070381 0.355142  
2002-11-28 08:00:45 51°13.685 2°55.76 27.560456 0.070381 0.355136  
2002-11-28 08:00:49 51°13.684 2°55.758 27.560456 0.070381 0.355136  
2002-11-28 08:00:54 51°13.684 2°55.755 27.547333 0.070381 0.355142  
2002-11-28 08:00:59 51°13.685 2°55.753 28.121134 0.070381 0.355136  
2002-11-28 08:01:05 51°13.685 2°55.751 27.337338 0.070381 0.355142  
2002-11-28 08:01:09 51°13.685 2°55.75 27.911228 0.070381 0.355142  
2002-11-28 08:01:15 51°13.685 2°55.75 27.705242 0.070381 0.355147  
2002-11-28 08:01:19 51°13.686 2°55.75 27.705242 0.070381 0.355147  
2002-11-28 08:01:25 51°13.687 2°55.75 26.525636 0.070381 0.355142  
2002-11-28 08:01:29 51°13.687 2°55.75 28.147032 0.070381 0.355147  
2002-11-28 08:01:35 51°13.689 2°55.751 28.329802 0.070381 0.355147  
2002-11-28 08:01:38 51°13.689 2°55.751 27.563591 0.070381 0.355147  
2002-11-28 08:01:45 51°13.692 2°55.753 26.233313 0.070381 0.355147  
2002-11-28 08:01:48 51°13.693 2°55.753 26.233313 0.070381 0.355147  
2002-11-28 08:01:54 51°13.696 2°55.754 27.464421 0.070381 0.355142  
2002-11-28 08:01:58 51°13.698 2°55.755 28.421993 0.070381 0.355147  
2002-11-28 08:02:05 51°13.702 2°55.755 28.339145 0.070381 0.355147  
2002-11-28 08:02:09 51°13.705 2°55.755 28.114802 0.070381 0.355142  
2002-11-28 08:02:15 51°13.71 2°55.754 26.894451 0.070381 0.355147  
2002-11-28 08:02:19 51°13.713 2°55.753 26.894451 0.070381 0.355147  
2002-11-28 08:02:24 51°13.717 2°55.75 26.454301 0.070381 0.355147  
2002-11-28 08:02:29 51°13.722 2°55.747 27.492738 0.070381 0.355147  
2002-11-28 08:02:34 51°13.727 2°55.743 27.412577 0.070381 0.355147  
2002-11-28 08:02:38 51°13.731 2°55.739 27.027213 0.070381 0.355142  
2002-11-28 08:02:44 51°13.737 2°55.732 26.653711 0.070381 0.355136  
2002-11-28 08:02:48 51°13.742 2°55.728 26.653711 0.070381 0.355136  
2002-11-28 08:02:54 51°13.749 2°55.721 26.743615 0.070381 0.355131  
2002-11-28 08:02:58 51°13.754 2°55.716 27.488542 0.070381 0.355126  
2002-11-28 08:03:04 51°13.762 2°55.708 26.090229 0.070381 0.355136  
2002-11-28 08:03:08 51°13.767 2°55.702 26.498168 0.070381 0.355142  
2002-11-28 08:03:14 51°13.775 2°55.693 27.025928 0.070381 0.355152  
2002-11-28 08:03:19 51°13.782 2°55.685 27.025928 0.070381 0.355152  
2002-11-28 08:03:25 51°13.791 2°55.676 26.984724 0.070381 0.355152  
2002-11-28 08:03:28 51°13.796 2°55.671 26.562072 0.070381 0.355152  
2002-11-28 08:03:35 51°13.807 2°55.661 25.774552 0.070381 0.355147  
2002-11-28 08:03:39 51°13.814 2°55.655 27.168643 0.070381 0.355142  
2002-11-28 08:03:44 51°13.823 2°55.647 27.63729 0.070381 0.355142  
2002-11-28 08:03:48 51°13.83 2°55.642 27.63729 0.070381 0.355142  
2002-11-28 08:03:54 51°13.841 2°55.634 28.034511 0.070381 0.355147  
2002-11-28 08:03:59 51°13.85 2°55.627 27.069054 0.070381 0.355157  
2002-11-28 08:04:04 51°13.86 2°55.621 26.689789 0.070381 0.355162  
2002-11-28 08:04:08 51°13.867 2°55.616 27.291588 0.070381 0.355167  
2002-11-28 08:04:14 51°13.879 2°55.608 26.619425 0.070381 0.355162  
2002-11-28 08:04:19 51°13.889 2°55.602 26.619425 0.070381 0.355162  
2002-11-28 08:04:25 51°13.9 2°55.594 26.71903 0.070381 0.355162  
2002-11-28 08:04:29 51°13.907 2°55.589 25.948245 0.070381 0.355162  
2002-11-28 08:04:34 51°13.917 2°55.583 27.366215 0.070381 0.355157  
2002-11-28 08:04:39 51°13.926 2°55.576 27.491716 0.070381 0.355157  
2002-11-28 08:04:44 51°13.935 2°55.57 26.44272 0.070381 0.355162  
2002-11-28 08:04:49 51°13.944 2°55.564 26.44272 0.070381 0.355162  
2002-11-28 08:04:55 51°13.954 2°55.557 26.532252 0.070381 0.355167  
2002-11-28 08:04:59 51°13.961 2°55.553 26.616767 0.070381 0.355172  
2002-11-28 08:05:04 51°13.969 2°55.547 25.985749 0.070381 0.355172  
2002-11-28 08:05:08 51°13.976 2°55.543 26.85299 0.070381 0.355167  
2002-11-28 08:05:14 51°13.986 2°55.536 27.407829 0.070381 0.355167  
2002-11-28 08:05:19 51°13.993 2°55.531 27.407829 0.070381 0.355167  
2002-11-28 08:05:25 51°14.003 2°55.524 26.94585 0.070381 0.355162  
2002-11-28 08:05:29 51°14.009 2°55.52 28.164895 0.070381 0.355162  
2002-11-28 08:05:34 51°14.016 2°55.515 26.337664 0.070381 0.355162  
2002-11-28 08:05:39 51°14.023 2°55.509 27.512801 0.070381 0.355162  
2002-11-28 08:05:44 51°14.03 2°55.504 27.396322 0.070381 0.355172  
2002-11-28 08:05:48 51°14.036 2°55.5 27.396322 0.070381 0.355172  
2002-11-28 08:05:55 51°14.045 2°55.492 26.857406 0.070381 0.355172  
2002-11-28 08:05:58 51°14.049 2°55.488 26.835066 0.070381 0.355172  
2002-11-28 08:06:04 51°14.057 2°55.482 26.953237 0.070381 0.355177  
2002-11-28 08:06:08 51°14.062 2°55.478 26.405151 0.070381 0.355172  
2002-11-28 08:06:14 51°14.07 2°55.471 26.93247 0.070381 0.355172  
2002-11-28 08:06:19 51°14.076 2°55.466 26.93247 0.070381 0.355172  
2002-11-28 08:06:24 51°14.083 2°55.461 27.101299 0.070381 0.355162  
2002-11-28 08:06:29 51°14.089 2°55.455 28.370341 0.070381 0.355167  
2002-11-28 08:06:35 51°14.097 2°55.449 24.722065 0.070381 0.383619  
2002-11-28 08:06:38 51°14.101 2°55.447 26.119671 0.070381 0.355167  
2002-11-28 08:06:45 51°14.109 2°55.44 25.6498 0.070381 0.355167  
2002-11-28 08:06:49 51°14.114 2°55.436 25.6498 0.070381 0.355167  
2002-11-28 08:06:55 51°14.121 2°55.43 24.076992 0.070381 0.355172  
2002-11-28 08:06:59 51°14.126 2°55.426 25.190942 0.070381 0.355167  
2002-11-28 08:07:05 51°14.133 2°55.42 25.681026 0.070381 0.355167  
2002-11-28 08:07:09 51°14.138 2°55.416 25.383856 0.070381 0.355167  
2002-11-28 08:07:15 51°14.145 2°55.41 25.590564 0.070381 0.355167  
2002-11-28 08:07:19 51°14.15 2°55.407 25.590564 0.070381 0.355167  
2002-11-28 08:07:25 51°14.157 2°55.401 25.10202 0.070381 0.355167  
2002-11-28 08:07:29 51°14.161 2°55.397 26.084726 0.070381 0.355162  
2002-11-28 08:07:35 51°14.168 2°55.391 25.992414 0.070381 0.355162  
2002-11-28 08:07:39 51°14.173 2°55.387 25.051881 0.070381 0.355162  
2002-11-28 08:07:45 51°14.18 2°55.381 24.575882 0.070381 0.355162  
2002-11-28 08:07:49 51°14.184 2°55.377 24.575882 0.070381 0.355162  
2002-11-28 08:07:53 51°14.189 2°55.374 26.902579 0.070381 0.355162  
2002-11-28 08:07:58 51°14.194 2°55.368 25.808599 0.070381 0.355167  
2002-11-28 08:08:04 51°14.201 2°55.362 26.356635 0.070381 0.355162  
2002-11-28 08:08:08 51°14.205 2°55.358 27.052431 0.070381 0.355167  
2002-11-28 08:08:14 51°14.212 2°55.351 25.655336 0.070381 0.355162  
2002-11-28 08:08:19 51°14.217 2°55.345 25.655336 0.070381 0.355162  
2002-11-28 08:08:24 51°14.222 2°55.339 25.995579 0.070381 0.355162  
2002-11-28 08:08:29 51°14.227 2°55.333 26.140184 0.070381 0.355167  
2002-11-28 08:08:35 51°14.234 2°55.325 26.393821 0.070381 0.355162  
2002-11-28 08:08:39 51°14.238 2°55.32 24.609771 0.070381 0.355167  
2002-11-28 08:08:44 51°14.243 2°55.313 26.662234 0.070381 0.355162  
2002-11-28 08:08:48 51°14.247 2°55.308 26.662234 0.070381 0.355162  
2002-11-28 08:08:55 51°14.254 2°55.298 25.872694 0.070381 0.355157  
2002-11-28 08:08:59 51°14.258 2°55.292 25.260881 0.070381 0.355162  
2002-11-28 08:09:05 51°14.264 2°55.283 24.658546 0.070381 0.355162  
2002-11-28 08:09:09 51°14.268 2°55.276 25.591575 0.070381 0.355167  
2002-11-28 08:09:15 51°14.274 2°55.265 26.374305 0.070381 0.355162  
2002-11-28 08:09:19 51°14.279 2°55.257 26.374305 0.070381 0.355162  
2002-11-28 08:09:25 51°14.286 2°55.243 26.104951 0.070381 0.355167  
2002-11-28 08:09:29 51°14.291 2°55.233 25.279531 0.070381 0.355167  
2002-11-28 08:09:35 51°14.299 2°55.216 25.473224 0.070381 0.355162  
2002-11-28 08:09:39 51°14.305 2°55.204 27.862744 0.070381 0.355157  
2002-11-28 08:09:45 51°14.314 2°55.185 25.638316 0.070381 0.355162  
2002-11-28 08:09:49 51°14.32 2°55.171 25.638316 0.070381 0.355162  
2002-11-28 08:09:55 51°14.33 2°55.15 25.639289 0.070381 0.355157  
2002-11-28 08:09:59 51°14.337 2°55.136 26.076694 0.070381 0.355157  
2002-11-28 08:10:04 51°14.346 2°55.117 24.468227 0.070381 0.355157  
2002-11-28 08:10:09 51°14.355 2°55.098 26.079818 0.070381 0.355162  
2002-11-28 08:10:15 51°14.366 2°55.074 26.319282 0.070381 0.355162  
2002-11-28 08:10:19 51°14.374 2°55.059 26.319282 0.070381 0.355162  
2002-11-28 08:10:25 51°14.385 2°55.035 26.187283 0.070381 0.355162  
2002-11-28 08:10:29 51°14.394 2°55.02 26.042807 0.070381 0.355162  
2002-11-28 08:10:35 51°14.407 2°54.996 26.793609 0.070381 0.355162  
2002-11-28 08:10:39 51°14.416 2°54.981 27.243686 0.070381 0.355162  
2002-11-28 08:10:45 51°14.429 2°54.957 26.004848 0.070381 0.355162  
2002-11-28 08:10:49 51°14.439 2°54.94 26.004848 0.070381 0.355162  
2002-11-28 08:10:55 51°14.453 2°54.917 26.214422 0.070381 0.355167  
2002-11-28 08:10:59 51°14.462 2°54.902 26.048128 0.070381 0.355172  
2002-11-28 08:11:05 51°14.477 2°54.878 25.474723 0.070381 0.355172  
2002-11-28 08:11:09 51°14.487 2°54.863 25.519665 0.070381 0.355167  
2002-11-28 08:11:15 51°14.502 2°54.84 25.165041 0.070381 0.355167  
2002-11-28 08:11:19 51°14.511 2°54.825 25.165041 0.070381 0.355167  
2002-11-28 08:11:25 51°14.526 2°54.803 25.625932 0.070381 0.355172  
2002-11-28 08:11:29 51°14.537 2°54.788 25.530943 0.070381 0.355172  
2002-11-28 08:11:35 51°14.552 2°54.766 25.504113 0.070381 0.355172  
2002-11-28 08:11:39 51°14.562 2°54.752 26.297892 0.070381 0.355172  
2002-11-28 08:11:45 51°14.577 2°54.73 24.830215 0.070381 0.355172  
2002-11-28 08:11:48 51°14.585 2°54.719 24.830215 0.070381 0.355172  
2002-11-28 08:11:53 51°14.597 2°54.7 25.685887 0.070381 0.355172  
2002-11-28 08:11:59 51°14.612 2°54.678 25.686522 0.070381 0.355172  
2002-11-28 08:12:05 51°14.627 2°54.656 25.774626 0.070381 0.355172  
2002-11-28 08:12:09 51°14.637 2°54.64 26.293776 0.070381 0.355182  
2002-11-28 08:12:15 51°14.652 2°54.617 26.536207 0.070381 0.355172  
2002-11-28 08:12:19 51°14.663 2°54.602 26.536207 0.070381 0.355172  
2002-11-28 08:12:25 51°14.679 2°54.579 26.267816 0.070381 0.355172  
2002-11-28 08:12:29 51°14.69 2°54.566 25.357009 0.070381 0.355167  
2002-11-28 08:12:34 51°14.704 2°54.549 25.47716 0.070381 0.355167  
2002-11-28 08:12:39 51°14.719 2°54.533 25.301482 0.070381 0.355172  
2002-11-28 08:12:44 51°14.735 2°54.517 26.3284 0.070381 0.355172  
2002-11-28 08:12:49 51°14.751 2°54.503 26.3284 0.070381 0.355172  
2002-11-28 08:12:54 51°14.767 2°54.49 25.877803 0.070381 0.355172  
2002-11-28 08:12:58 51°14.78 2°54.48 25.477873 0.070381 0.355172  
2002-11-28 08:13:04 51°14.8 2°54.465 24.798207 0.070381 0.355177  
2002-11-28 08:13:08 51°14.814 2°54.455 25.483646 0.070381 0.355177  
2002-11-28 08:13:14 51°14.833 2°54.44 26.095286 0.070381 0.355182  
2002-11-28 08:13:19 51°14.85 2°54.427 26.095286 0.070381 0.355182  
2002-11-28 08:13:24 51°14.866 2°54.414 25.544729 0.070381 0.355177  
2002-11-28 08:13:29 51°14.883 2°54.4 26.49251 0.070381 0.355182  
2002-11-28 08:13:34 51°14.899 2°54.387 25.604451 0.070381 0.355182  
2002-11-28 08:13:39 51°14.915 2°54.373 25.389712 0.070381 0.355188  
2002-11-28 08:13:45 51°14.934 2°54.356 24.929517 0.070381 0.355177  
2002-11-28 08:13:48 51°14.944 2°54.348 24.929517 0.070381 0.355177  
2002-11-28 08:13:54 51°14.963 2°54.331 24.621228 0.070381 0.355182  
2002-11-28 08:13:58 51°14.976 2°54.32 25.544205 0.070381 0.355177  
2002-11-28 08:14:05 51°14.999 2°54.3 26.034696 0.070381 0.355177  
2002-11-28 08:14:09 51°15.012 2°54.289 25.667715 0.070381 0.355177  
2002-11-28 08:14:14 51°15.028 2°54.275 26.367489 0.070381 0.355177  
2002-11-28 08:14:18 51°15.042 2°54.263 26.367489 0.070381 0.355177  
2002-11-28 08:14:24 51°15.061 2°54.246 25.233275 0.070381 0.355177  
2002-11-28 08:14:29 51°15.078 2°54.231 25.723264 0.070381 0.355182  
2002-11-28 08:14:34 51°15.094 2°54.215 25.338755 0.070381 0.355182  
2002-11-28 08:14:39 51°15.111 2°54.2 24.519643 0.070381 0.355182  
2002-11-28 08:14:45 51°15.131 2°54.181 25.872992 0.070381 0.355182  
2002-11-28 08:14:48 51°15.141 2°54.171 25.872992 0.070381 0.355182  
2002-11-28 08:14:54 51°15.161 2°54.153 25.442996 0.070381 0.355182  
2002-11-28 08:14:58 51°15.174 2°54.14 23.956384 0.070381 0.355177  
2002-11-28 08:15:04 51°15.194 2°54.122 24.261628 0.070381 0.355177  
2002-11-28 08:15:08 51°15.207 2°54.109 24.510944 0.070381 0.355177  
2002-11-28 08:15:14 51°15.228 2°54.092 23.95202 0.070381 0.355182  
2002-11-28 08:15:19 51°15.245 2°54.076 23.95202 0.070381 0.355182  
2002-11-28 08:15:24 51°15.262 2°54.061 24.166181 0.070381 0.355182  
2002-11-28 08:15:28 51°15.275 2°54.048 24.013557 0.070381 0.355188  
2002-11-28 08:15:34 51°15.296 2°54.03 24.917013 0.070381 0.355182  
2002-11-28 08:15:39 51°15.313 2°54.014 24.11058 0.070381 0.355182  
2002-11-28 08:15:44 51°15.33 2°53.998 24.073552 0.070381 0.355188  
2002-11-28 08:15:48 51°15.343 2°53.986 24.073552 0.070381 0.355188  
2002-11-28 08:15:54 51°15.364 2°53.968 24.206901 0.070381 0.355188  
2002-11-28 08:15:58 51°15.378 2°53.955 24.480391 0.070381 0.355188  
2002-11-28 08:16:04 51°15.398 2°53.937 25.588992 0.070381 0.355193  
2002-11-28 08:16:08 51°15.412 2°53.925 24.91161 0.070381 0.355188  
2002-11-28 08:16:14 51°15.432 2°53.906 25.815541 0.070381 0.355188  
2002-11-28 08:16:18 51°15.446 2°53.893 25.815541 0.070381 0.355188  
2002-11-28 08:16:24 51°15.466 2°53.874 24.784772 0.070381 0.355188  
2002-11-28 08:16:28 51°15.48 2°53.862 25.338455 0.070381 0.355188  
2002-11-28 08:16:34 51°15.501 2°53.843 25.102171 0.070381 0.355193  
2002-11-28 08:16:38 51°15.514 2°53.831 26.173803 0.070381 0.355188  
2002-11-28 08:16:44 51°15.535 2°53.812 24.819131 0.070381 0.355188  
2002-11-28 08:16:48 51°15.549 2°53.8 24.819131 0.070381 0.355188  
2002-11-28 08:16:54 51°15.569 2°53.781 25.161201 0.070381 0.355193  
2002-11-28 08:16:58 51°15.583 2°53.769 25.500552 0.070381 0.355198  
2002-11-28 08:17:04 51°15.603 2°53.75 25.990068 0.070381 0.355193  
2002-11-28 08:17:08 51°15.617 2°53.738 25.591275 0.070381 0.355198  
2002-11-28 08:17:14 51°15.638 2°53.719 24.790373 0.070381 0.355198  
2002-11-28 08:17:18 51°15.651 2°53.707 24.790373 0.070381 0.355198  
2002-11-28 08:17:24 51°15.672 2°53.688 25.587532 0.070381 0.355193  
2002-11-28 08:17:28 51°15.686 2°53.676 25.28017 0.070381 0.355198  
2002-11-28 08:17:34 51°15.707 2°53.657 25.769286 0.070381 0.355193  
2002-11-28 08:17:38 51°15.72 2°53.645 25.158941 0.070381 0.355193  
2002-11-28 08:17:44 51°15.741 2°53.627 25.350887 0.070381 0.355198  
2002-11-28 08:17:48 51°15.755 2°53.614 25.350887 0.070381 0.355198  
2002-11-28 08:17:54 51°15.775 2°53.596 25.222553 0.070381 0.355198  
2002-11-28 08:17:58 51°15.789 2°53.583 26.046491 0.070381 0.355193  
2002-11-28 08:18:04 51°15.809 2°53.565 25.712501 0.070381 0.355198  
2002-11-28 08:18:09 51°15.827 2°53.55 25.925927 0.070381 0.355198  
2002-11-28 08:18:14 51°15.843 2°53.534 25.991967 0.070381 0.355198  
2002-11-28 08:18:18 51°15.857 2°53.522 25.991967 0.070381 0.355198  
2002-11-28 08:18:24 51°15.878 2°53.503 25.114908 0.070381 0.355198  
2002-11-28 08:18:28 51°15.891 2°53.491 25.581879 0.070381 0.355203  
2002-11-28 08:18:34 51°15.912 2°53.473 25.954615 0.070381 0.355203  
2002-11-28 08:18:39 51°15.929 2°53.458 25.86076 0.070381 0.355203  
2002-11-28 08:18:44 51°15.946 2°53.442 25.462574 0.070381 0.355203  
2002-11-28 08:18:48 51°15.96 2°53.43 25.462574 0.070381 0.355203  
2002-11-28 08:18:54 51°15.98 2°53.412 24.841978 0.070381 0.355203  
2002-11-28 08:18:58 51°15.994 2°53.4 25.884552 0.070381 0.355203  
2002-11-28 08:19:04 51°16.014 2°53.382 25.795497 0.070381 0.355208  
2002-11-28 08:19:08 51°16.028 2°53.369 25.580606 0.070381 0.355203  
2002-11-28 08:19:14 51°16.048 2°53.351 24.629042 0.070381 0.355208  
2002-11-28 08:19:19 51°16.065 2°53.336 24.629042 0.070381 0.355208  
2002-11-28 08:19:24 51°16.083 2°53.321 25.351601 0.070381 0.355203  
2002-11-28 08:19:28 51°16.096 2°53.309 25.029514 0.070381 0.355203  
2002-11-28 08:19:34 51°16.117 2°53.291 25.924064 0.070381 0.355213  
2002-11-28 08:19:39 51°16.134 2°53.276 24.559026 0.070381 0.355203  
2002-11-28 08:19:44 51°16.151 2°53.26 25.279042 0.070381 0.355208  
2002-11-28 08:19:48 51°16.165 2°53.248 25.279042 0.070381 0.355208  
2002-11-28 08:19:54 51°16.185 2°53.23 25.459762 0.070381 0.355213  
2002-11-28 08:19:58 51°16.199 2°53.218 24.81531 0.070381 0.355208  
2002-11-28 08:20:04 51°16.219 2°53.199 25.73055 0.070381 0.355203  
2002-11-28 08:20:08 51°16.233 2°53.187 25.053012 0.070381 0.355213  
2002-11-28 08:20:12 51°16.247 2°53.175 26.734549 0.070381 0.355208  
2002-11-28 08:20:19 51°16.271 2°53.154 26.734549 0.070381 0.355208  
2002-11-28 08:20:24 51°16.288 2°53.139 25.522513 0.070381 0.355208  
2002-11-28 08:20:28 51°16.301 2°53.127 25.149112 0.070381 0.355208  
2002-11-28 08:20:34 51°16.322 2°53.109 25.335149 0.070381 0.355208  
2002-11-28 08:20:39 51°16.339 2°53.094 24.717709 0.070381 0.355208  
2002-11-28 08:20:44 51°16.356 2°53.079 25.794079 0.070381 0.355208  
2002-11-28 08:20:48 51°16.37 2°53.068 25.794079 0.070381 0.355208  
2002-11-28 08:20:54 51°16.391 2°53.051 24.62377 0.070381 0.355208  
2002-11-28 08:20:59 51°16.409 2°53.037 25.364445 0.070381 0.355208  
2002-11-28 08:21:04 51°16.426 2°53.022 24.312047 0.070381 0.355208  
2002-11-28 08:21:08 51°16.44 2°53.012 25.526035 0.070381 0.355213  
2002-11-28 08:21:14 51°16.461 2°52.995 24.997367 0.070381 0.355218  
2002-11-28 08:21:18 51°16.475 2°52.983 24.997367 0.070381 0.355218  
2002-11-28 08:21:24 51°16.496 2°52.966 25.485671 0.070381 0.355213  
2002-11-28 08:21:28 51°16.51 2°52.955 26.070223 0.070381 0.355208  
2002-11-28 08:21:32 51°16.524 2°52.944 24.872568 0.070381 0.355213  
2002-11-28 08:21:39 51°16.549 2°52.924 23.748243 0.070381 0.355213  
2002-11-28 08:21:44 51°16.566 2°52.91 25.297498 0.070381 0.355213  
2002-11-28 08:21:48 51°16.58 2°52.899 25.297498 0.070381 0.355213  
2002-11-28 08:21:54 51°16.601 2°52.881 25.182736 0.070381 0.355213  
2002-11-28 08:21:59 51°16.619 2°52.867 26.037375 0.070381 0.355213  
2002-11-28 08:22:04 51°16.636 2°52.852 25.792511 0.070381 0.355208  
2002-11-28 08:22:08 51°16.65 2°52.841 25.672314 0.070381 0.355213  
2002-11-28 08:22:14 51°16.671 2°52.824 25.278591 0.070381 0.355213  
2002-11-28 08:22:19 51°16.688 2°52.809 25.278591 0.070381 0.355213  
2002-11-28 08:22:24 51°16.706 2°52.796 24.563544 0.070381 0.355213  
2002-11-28 08:22:28 51°16.72 2°52.784 25.173513 0.070381 0.355208  
2002-11-28 08:22:34 51°16.741 2°52.769 25.083966 0.070381 0.355213  
2002-11-28 08:22:39 51°16.759 2°52.756 24.89623 0.070381 0.355213  
2002-11-28 08:22:44 51°16.777 2°52.743 25.059385 0.070381 0.355213  
2002-11-28 08:22:48 51°16.791 2°52.733 25.059385 0.070381 0.355213  
2002-11-28 08:22:54 51°16.813 2°52.718 24.673294 0.070381 0.355208  
2002-11-28 08:22:59 51°16.831 2°52.707 25.305692 0.070381 0.355208  
2002-11-28 08:23:05 51°16.853 2°52.692 25.202308 0.070381 0.355218  
2002-11-28 08:23:08 51°16.864 2°52.685 24.90409 0.070381 0.355218  
2002-11-28 08:23:15 51°16.889 2°52.667 25.684765 0.070381 0.355213  
2002-11-28 08:23:18 51°16.9 2°52.66 25.684765 0.070381 0.355213  
2002-11-28 08:23:24 51°16.922 2°52.647 25.18123 0.070381 0.355213  
2002-11-28 08:23:28 51°16.936 2°52.637 25.509023 0.070381 0.355213  
2002-11-28 08:23:35 51°16.963 2°52.621 24.934843 0.070381 0.355218  
2002-11-28 08:23:39 51°16.978 2°52.612 24.025453 0.070381 0.355213  
2002-11-28 08:23:44 51°16.996 2°52.601 24.247597 0.070381 0.355213  
2002-11-28 08:23:49 51°17.015 2°52.59 24.247597 0.070381 0.355213  
2002-11-28 08:23:54 51°17.033 2°52.579 24.671361 0.070381 0.355213  
2002-11-28 08:23:59 51°17.052 2°52.568 23.775689 0.070381 0.355223  
2002-11-28 08:24:04 51°17.071 2°52.557 24.117571 0.070381 0.355218  
2002-11-28 08:24:09 51°17.089 2°52.546 24.733581 0.070381 0.355218  
2002-11-28 08:24:14 51°17.108 2°52.535 24.623087 0.070381 0.355218  
2002-11-28 08:24:18 51°17.123 2°52.526 24.623087 0.070381 0.355218  
2002-11-28 08:24:24 51°17.145 2°52.513 24.986913 0.070381 0.355218  
2002-11-28 08:24:28 51°17.16 2°52.504 24.530317 0.070381 0.355223  
2002-11-28 08:24:34 51°17.182 2°52.49 24.863646 0.070381 0.355218  
2002-11-28 08:24:39 51°17.201 2°52.479 25.181795 0.070381 0.355218  
2002-11-28 08:24:44 51°17.219 2°52.468 24.646261 0.070381 0.355213  
2002-11-28 08:24:48 51°17.234 2°52.459 24.646261 0.070381 0.355213  
2002-11-28 08:24:54 51°17.257 2°52.445 25.211604 0.070381 0.355223  
2002-11-28 08:24:59 51°17.275 2°52.434 24.738732 0.070381 0.355213  
2002-11-28 08:25:04 51°17.294 2°52.423 24.779132 0.070381 0.355223  
2002-11-28 08:25:09 51°17.313 2°52.412 24.549686 0.070381 0.355218  
2002-11-28 08:25:14 51°17.332 2°52.4 24.430203 0.070381 0.355229  
2002-11-28 08:25:19 51°17.35 2°52.389 24.430203 0.070381 0.355229  
2002-11-28 08:25:24 51°17.369 2°52.379 25.358324 0.070381 0.355218  
2002-11-28 08:25:29 51°17.388 2°52.369 24.787648 0.070381 0.355213  
2002-11-28 08:25:34 51°17.407 2°52.36 25.572705 0.070381 0.355223  
2002-11-28 08:25:39 51°17.427 2°52.351 24.056924 0.070381 0.355223  
2002-11-28 08:25:44 51°17.446 2°52.343 24.54885 0.070381 0.355223  
2002-11-28 08:25:48 51°17.461 2°52.337 24.54885 0.070381 0.355223  
2002-11-28 08:25:54 51°17.485 2°52.327 24.862285 0.070381 0.355223  
2002-11-28 08:25:59 51°17.504 2°52.319 25.076993 0.070381 0.355223  
2002-11-28 08:26:04 51°17.523 2°52.311 24.727179 0.070381 0.355218  
2002-11-28 08:26:09 51°17.543 2°52.303 25.911728 0.070381 0.355223  
2002-11-28 08:26:14 51°17.562 2°52.295 25.02661 0.070381 0.355223  
2002-11-28 08:26:19 51°17.581 2°52.287 25.02661 0.070381 0.355223  
2002-11-28 08:26:24 51°17.601 2°52.28 25.014952 0.070381 0.355218  
2002-11-28 08:26:28 51°17.617 2°52.275 25.200803 0.070381 0.355223  
2002-11-28 08:26:34 51°17.64 2°52.266 26.751759 0.070381 0.355218  
2002-11-28 08:26:39 51°17.66 2°52.26 25.357873 0.070381 0.355229  
2002-11-28 08:26:45 51°17.683 2°52.252 25.514269 0.070381 0.355223  
2002-11-28 08:26:49 51°17.699 2°52.247 25.514269 0.070381 0.355223  
2002-11-28 08:26:55 51°17.723 2°52.239 25.210588 0.070381 0.355229  
2002-11-28 08:26:59 51°17.738 2°52.234 25.184167 0.070381 0.355223  
2002-11-28 08:27:05 51°17.762 2°52.227 24.653541 0.070381 0.355229  
2002-11-28 08:27:09 51°17.778 2°52.221 25.26058 0.070381 0.355223  
2002-11-28 08:27:14 51°17.797 2°52.215 25.668724 0.070381 0.355223  
2002-11-28 08:27:19 51°17.817 2°52.209 25.668724 0.070381 0.355223  
2002-11-28 08:27:24 51°17.836 2°52.202 24.403041 0.070381 0.355229  
2002-11-28 08:27:29 51°17.856 2°52.198 24.903108 0.070381 0.355223  
2002-11-28 08:27:34 51°17.876 2°52.192 24.839406 0.070381 0.355229  
2002-11-28 08:27:39 51°17.896 2°52.186 24.614513 0.070381 0.355223  
2002-11-28 08:27:44 51°17.916 2°52.182 24.470014 0.070381 0.355234  
2002-11-28 08:27:49 51°17.936 2°52.176 24.470014 0.070381 0.355234  
2002-11-28 08:27:54 51°17.956 2°52.171 24.949686 0.070381 0.355223  
2002-11-28 08:27:59 51°17.976 2°52.167 25.505425 0.070381 0.355229  
2002-11-28 08:28:04 51°17.996 2°52.161 24.2792 0.070381 0.355234  
2002-11-28 08:28:09 51°18.016 2°52.157 24.195111 0.070381 0.355223  
2002-11-28 08:28:14 51°18.036 2°52.152 24.116998 0.070381 0.355229  
2002-11-28 08:28:19 51°18.056 2°52.147 24.116998 0.070381 0.355229  
2002-11-28 08:28:24 51°18.076 2°52.145 24.335473 0.070381 0.355218  
2002-11-28 08:28:28 51°18.092 2°52.14 25.533378 0.070381 0.355229  
2002-11-28 08:28:34 51°18.116 2°52.137 25.846697 0.070381 0.355234  
2002-11-28 08:28:38 51°18.132 2°52.132 24.71589 0.070381 0.355223  
2002-11-28 08:28:44 51°18.156 2°52.128 24.053024 0.070381 0.355244  
2002-11-28 08:28:48 51°18.172 2°52.126 24.053024 0.070381 0.355244  
2002-11-28 08:28:54 51°18.196 2°52.122 24.641445 0.070381 0.355234  
2002-11-28 08:28:59 51°18.216 2°52.119 24.124026 0.070381 0.355234  
2002-11-28 08:29:04 51°18.237 2°52.115 24.273064 0.070381 0.355234  
2002-11-28 08:29:08 51°18.253 2°52.113 25.105525 0.070381 0.355229  
2002-11-28 08:29:15 51°18.281 2°52.108 23.915141 0.070381 0.355223  
2002-11-28 08:29:19 51°18.297 2°52.105 23.915141 0.070381 0.355223  
2002-11-28 08:29:24 51°18.317 2°52.101 24.704675 0.070381 0.355229  
2002-11-28 08:29:28 51°18.333 2°52.098 24.7293 0.070381 0.355229  
2002-11-28 08:29:34 51°18.357 2°52.093 24.303361 0.070381 0.355234  
2002-11-28 08:29:38 51°18.373 2°52.091 25.013782 0.070381 0.355234  
2002-11-28 08:29:44 51°18.397 2°52.086 25.207615 0.070381 0.355234  
2002-11-28 08:29:48 51°18.414 2°52.083 25.207615 0.070381 0.355234  
2002-11-28 08:29:52 51°18.43 2°52.081 24.490159 0.070381 0.355229  
2002-11-28 08:29:59 51°18.458 2°52.075 24.640383 0.070381 0.355229  
2002-11-28 08:30:04 51°18.478 2°52.072 24.679928 0.070381 0.355229  
2002-11-28 08:30:08 51°18.494 2°52.069 23.932146 0.070381 0.355229  
2002-11-28 08:30:14 51°18.518 2°52.065 24.71714 0.070381 0.355234  
2002-11-28 08:30:18 51°18.534 2°52.062 24.71714 0.070381 0.355234  
2002-11-28 08:30:24 51°18.558 2°52.058 23.955695 0.070381 0.355223  
2002-11-28 08:30:28 51°18.574 2°52.054 24.368789 0.070381 0.355234  
2002-11-28 08:30:34 51°18.599 2°52.05 24.900312 0.070381 0.355229  
2002-11-28 08:30:38 51°18.615 2°52.047 23.583152 0.070381 0.355234  
2002-11-28 08:30:44 51°18.639 2°52.043 25.393315 0.070381 0.355234  
2002-11-28 08:30:48 51°18.655 2°52.04 25.393315 0.070381 0.355234  
2002-11-28 08:30:54 51°18.679 2°52.035 24.551166 0.070381 0.355234  
2002-11-28 08:30:58 51°18.695 2°52.032 24.626387 0.070381 0.355234  
2002-11-28 08:31:04 51°18.719 2°52.028 25.024761 0.070381 0.355229  
2002-11-28 08:31:08 51°18.735 2°52.025 24.188433 0.070381 0.355234  
2002-11-28 08:31:14 51°18.759 2°52.02 23.783787 0.070381 0.355234  
2002-11-28 08:31:19 51°18.779 2°52.016 23.783787 0.070381 0.355234  
2002-11-28 08:31:24 51°18.799 2°52.013 23.586077 0.070381 0.355239  
2002-11-28 08:31:29 51°18.819 2°52.008 23.721746 0.070381 0.355239  
2002-11-28 08:31:34 51°18.839 2°52.003 25.184167 0.070381 0.355239  
2002-11-28 08:31:38 51°18.855 2°52.001 24.630559 0.070381 0.355239  
2002-11-28 08:31:45 51°18.883 2°51.996 24.40091 0.070381 0.355234  
2002-11-28 08:31:48 51°18.895 2°51.995 24.40091 0.070381 0.355234  
2002-11-28 08:31:54 51°18.919 2°51.989 24.603207 0.070381 0.355244  
2002-11-28 08:31:58 51°18.935 2°51.987 23.435539 0.070381 0.355239  
2002-11-28 08:32:04 51°18.959 2°51.982 24.995933 0.070381 0.355244  
2002-11-28 08:32:08 51°18.975 2°51.98 25.097611 0.070381 0.355239  
2002-11-28 08:32:14 51°18.999 2°51.975 24.051877 0.070381 0.355244  
2002-11-28 08:32:19 51°19.019 2°51.971 24.051877 0.070381 0.355244  
2002-11-28 08:32:25 51°19.043 2°51.968 24.220214 0.070381 0.355244  
2002-11-28 08:32:29 51°19.059 2°51.965 24.100341 0.070381 0.355234  
2002-11-28 08:32:35 51°19.084 2°51.961 24.448913 0.070381 0.355244  
2002-11-28 08:32:38 51°19.095 2°51.959 24.003993 0.070381 0.355239  
2002-11-28 08:32:45 51°19.124 2°51.954 24.113865 0.070381 0.355244  
2002-11-28 08:32:49 51°19.14 2°51.951 24.113865 0.070381 0.355244  
2002-11-28 08:32:55 51°19.164 2°51.947 24.615386 0.070381 0.355234  
2002-11-28 08:32:58 51°19.176 2°51.945 24.524164 0.070381 0.355249  
2002-11-28 08:33:05 51°19.204 2°51.942 24.197438 0.070381 0.355239  
2002-11-28 08:33:09 51°19.22 2°51.939 24.132658 0.070381 0.355244  
2002-11-28 08:33:14 51°19.24 2°51.938 24.29151 0.070381 0.355244  
2002-11-28 08:33:18 51°19.256 2°51.937 24.29151 0.070381 0.355244  
2002-11-28 08:33:25 51°19.284 2°51.934 24.332693 0.070381 0.355249  
2002-11-28 08:33:28 51°19.297 2°51.933 23.816705 0.070381 0.355239  
2002-11-28 08:33:34 51°19.321 2°51.93 23.546893 0.070381 0.355249  
2002-11-28 08:33:38 51°19.337 2°51.929 24.220977 0.070381 0.355239  
2002-11-28 08:33:44 51°19.361 2°51.926 25.171781 0.070381 0.355249  
2002-11-28 08:33:48 51°19.377 2°51.925 25.171781 0.070381 0.355249  
2002-11-28 08:33:54 51°19.401 2°51.923 24.516338 0.070381 0.355239  
2002-11-28 08:33:58 51°19.417 2°51.92 24.299055 0.070381 0.355249  
2002-11-28 08:34:04 51°19.442 2°51.92 25.443184 0.070381 0.355249  
2002-11-28 08:34:09 51°19.462 2°51.917 24.636325 0.070381 0.355249  
2002-11-28 08:34:12 51°19.474 2°51.917 25.136532 0.070381 0.355249  
2002-11-28 08:34:18 51°19.498 2°51.914 25.136532 0.070381 0.355249  
2002-11-28 08:34:24 51°19.522 2°51.912 25.135364 0.070381 0.355249  
2002-11-28 08:34:28 51°19.538 2°51.91 24.334559 0.070381 0.355249  
2002-11-28 08:34:34 51°19.563 2°51.908 25.080838 0.070381 0.355249  
2002-11-28 08:34:38 51°19.579 2°51.906 25.142257 0.070381 0.355244  
2002-11-28 08:34:44 51°19.603 2°51.903 24.890977 0.070381 0.355244  
2002-11-28 08:34:48 51°19.619 2°51.902 24.890977 0.070381 0.355244  
2002-11-28 08:34:54 51°19.643 2°51.899 24.456936 0.070381 0.355244  
2002-11-28 08:34:58 51°19.659 2°51.897 24.835662 0.070381 0.355249  
2002-11-28 08:35:04 51°19.683 2°51.896 24.589432 0.070381 0.355254  
2002-11-28 08:35:08 51°19.7 2°51.894 24.836456 0.070381 0.355249  
2002-11-28 08:35:14 51°19.724 2°51.893 24.43393 0.070381 0.355249  
2002-11-28 08:35:19 51°19.744 2°51.891 24.43393 0.070381 0.355249  
2002-11-28 08:35:24 51°19.764 2°51.888 24.750434 0.070381 0.355254  
2002-11-28 08:35:28 51°19.78 2°51.887 24.614627 0.070381 0.355239  
2002-11-28 08:35:34 51°19.804 2°51.884 24.504902 0.070381 0.355249  
2002-11-28 08:35:38 51°19.82 2°51.883 24.878541 0.070381 0.355249  
2002-11-28 08:35:44 51°19.845 2°51.881 24.304656 0.070381 0.355249  
2002-11-28 08:35:48 51°19.861 2°51.88 24.304656 0.070381 0.355249  
2002-11-28 08:35:54 51°19.885 2°51.879 25.181193 0.070381 0.355249  
2002-11-28 08:35:58 51°19.901 2°51.878 23.996839 0.070381 0.355244  
2002-11-28 08:36:04 51°19.926 2°51.877 24.693193 0.070381 0.355254  
2002-11-28 08:36:08 51°19.942 2°51.878 24.474956 0.070381 0.355249  
2002-11-28 08:36:12 51°19.958 2°51.877 24.711078 0.070381 0.355254  
2002-11-28 08:36:18 51°19.982 2°51.876 24.711078 0.070381 0.355254  
2002-11-28 08:36:25 51°20.011 2°51.876 25.580943 0.070381 0.355254  
2002-11-28 08:36:28 51°20.023 2°51.876 25.004953 0.070381 0.355249  
2002-11-28 08:36:34 51°20.047 2°51.877 24.519035 0.070381 0.355249  
2002-11-28 08:36:38 51°20.064 2°51.877 25.042188 0.070381 0.355254  
2002-11-28 08:36:45 51°20.092 2°51.876 24.606811 0.070381 0.355249  
2002-11-28 08:36:48 51°20.104 2°51.877 24.606811 0.070381 0.355249  
2002-11-28 08:36:54 51°20.128 2°51.876 25.752031 0.070381 0.355254  
2002-11-28 08:36:58 51°20.144 2°51.876 25.124214 0.070381 0.355249  
2002-11-28 08:37:04 51°20.169 2°51.876 24.385879 0.070381 0.355249  
2002-11-28 08:37:09 51°20.189 2°51.875 24.728278 0.070381 0.355254  
2002-11-28 08:37:14 51°20.209 2°51.875 23.82848 0.070381 0.355254  
2002-11-28 08:37:18 51°20.225 2°51.874 23.82848 0.070381 0.355254  
2002-11-28 08:37:24 51°20.249 2°51.874 24.891846 0.070381 0.355249  
2002-11-28 08:37:28 51°20.266 2°51.875 24.513641 0.070381 0.355249  
2002-11-28 08:37:34 51°20.29 2°51.874 24.517022 0.070381 0.355254  
2002-11-28 08:37:38 51°20.306 2°51.874 25.357723 0.070381 0.355259  
2002-11-28 08:37:44 51°20.33 2°51.873 25.021781 0.070381 0.355254  
2002-11-28 08:37:48 51°20.346 2°51.873 25.021781 0.070381 0.355254  
2002-11-28 08:37:54 51°20.37 2°51.872 24.992348 0.070381 0.355259  
2002-11-28 08:37:58 51°20.386 2°51.872 25.669061 0.070381 0.355254  
2002-11-28 08:38:04 51°20.411 2°51.871 25.727113 0.070381 0.355254  
2002-11-28 08:38:08 51°20.427 2°51.871 24.275503 0.070381 0.355259  
2002-11-28 08:38:14 51°20.451 2°51.87 25.17148 0.070381 0.355249  
2002-11-28 08:38:19 51°20.471 2°51.87 25.17148 0.070381 0.355249  
2002-11-28 08:38:25 51°20.495 2°51.87 24.501293 0.070381 0.355259  
2002-11-28 08:38:29 51°20.511 2°51.869 24.68315 0.070381 0.355254  
2002-11-28 08:38:34 51°20.531 2°51.869 23.93387 0.070381 0.355254  
2002-11-28 08:38:38 51°20.547 2°51.869 23.724665 0.070381 0.355264  
2002-11-28 08:38:44 51°20.572 2°51.868 24.621721 0.070381 0.355259  
2002-11-28 08:38:49 51°20.592 2°51.869 24.621721 0.070381 0.355259  
2002-11-28 08:38:53 51°20.608 2°51.869 23.786665 0.070381 0.355259  
2002-11-28 08:38:59 51°20.632 2°51.869 24.503991 0.070381 0.355259  
2002-11-28 08:39:05 51°20.656 2°51.868 24.785566 0.070381 0.355264  
2002-11-28 08:39:09 51°20.672 2°51.868 24.524733 0.070381 0.355259  
2002-11-28 08:39:14 51°20.692 2°51.868 24.696869 0.070381 0.355259  
2002-11-28 08:39:18 51°20.709 2°51.869 24.696869 0.070381 0.355259  
2002-11-28 08:39:24 51°20.733 2°51.868 24.045569 0.070381 0.355259  
2002-11-28 08:39:29 51°20.753 2°51.867 24.167021 0.070381 0.355264  
2002-11-28 08:39:34 51°20.774 2°51.867 23.709531 0.070381 0.355259  
2002-11-28 08:39:38 51°20.79 2°51.866 24.915842 0.070381 0.355264  
2002-11-28 08:39:45 51°20.818 2°51.866 23.91131 0.070381 0.355254  
2002-11-28 08:39:49 51°20.835 2°51.865 23.91131 0.070381 0.355254  
2002-11-28 08:39:54 51°20.855 2°51.866 24.324199 0.070381 0.355259  
2002-11-28 08:39:58 51°20.871 2°51.866 24.389076 0.070381 0.355264  
2002-11-28 08:40:05 51°20.899 2°51.865 24.603928 0.070381 0.355259  
2002-11-28 08:40:09 51°20.916 2°51.864 24.890674 0.070381 0.355264  
2002-11-28 08:40:14 51°20.936 2°51.864 24.344955 0.070381 0.355254  
2002-11-28 08:40:19 51°20.956 2°51.864 24.344955 0.070381 0.355254  
2002-11-28 08:40:25 51°20.981 2°51.864 25.143651 0.070381 0.35527  
2002-11-28 08:40:29 51°20.997 2°51.864 25.626081 0.070381 0.355259  
2002-11-28 08:40:35 51°21.021 2°51.864 23.8641 0.070381 0.355259  
2002-11-28 08:40:39 51°21.037 2°51.864 24.362241 0.070381 0.355259  
2002-11-28 08:40:44 51°21.058 2°51.864 24.956333 0.070381 0.355264  
2002-11-28 08:40:48 51°21.074 2°51.864 24.956333 0.070381 0.355264  
2002-11-28 08:40:55 51°21.102 2°51.865 25.723862 0.070381 0.355259  
2002-11-28 08:40:59 51°21.119 2°51.864 24.274627 0.070381 0.355264  
2002-11-28 08:41:05 51°21.143 2°51.864 24.839822 0.070381 0.355264  
2002-11-28 08:41:09 51°21.159 2°51.865 24.683832 0.070381 0.355259  
2002-11-28 08:41:15 51°21.184 2°51.864 25.297423 0.070381 0.355259  
2002-11-28 08:41:19 51°21.2 2°51.865 25.297423 0.070381 0.355259  
2002-11-28 08:41:25 51°21.224 2°51.864 24.066022 0.070381 0.35527  
2002-11-28 08:41:29 51°21.241 2°51.866 25.590639 0.070381 0.355254  
2002-11-28 08:41:34 51°21.261 2°51.865 25.093804 0.070381 0.355264  
2002-11-28 08:41:39 51°21.282 2°51.867 24.937638 0.070381 0.355259  
2002-11-28 08:41:45 51°21.306 2°51.866 25.025478 0.070381 0.35527  
2002-11-28 08:41:48 51°21.319 2°51.867 25.025478 0.070381 0.35527  
2002-11-28 08:41:54 51°21.343 2°51.866 25.21943 0.070381 0.355259  
2002-11-28 08:41:59 51°21.364 2°51.866 26.154673 0.070381 0.355259  
2002-11-28 08:42:04 51°21.384 2°51.866 24.206748 0.070381 0.355259  
2002-11-28 08:42:08 51°21.401 2°51.866 24.1916 0.070381 0.355259  
2002-11-28 08:42:14 51°21.425 2°51.867 23.500831 0.070381 0.355259  
2002-11-28 08:42:18 51°21.441 2°51.867 23.500831 0.070381 0.355259  
2002-11-28 08:42:24 51°21.466 2°51.868 24.837061 0.070381 0.355259  
2002-11-28 08:42:28 51°21.482 2°51.868 24.879335 0.070381 0.35527  
2002-11-28 08:42:34 51°21.506 2°51.869 24.226508 0.070381 0.355264  
2002-11-28 08:42:38 51°21.522 2°51.869 25.036229 0.070381 0.35527  
2002-11-28 08:42:44 51°21.547 2°51.869 24.669086 0.070381 0.35527  
2002-11-28 08:42:48 51°21.563 2°51.869 24.669086 0.070381 0.35527  
2002-11-28 08:42:54 51°21.588 2°51.87 23.821653 0.070381 0.355264  
2002-11-28 08:42:58 51°21.604 2°51.87 24.783825 0.070381 0.355259  
2002-11-28 08:43:04 51°21.628 2°51.87 24.392272 0.070381 0.355264  
2002-11-28 08:43:08 51°21.645 2°51.871 25.382279 0.070381 0.355264  
2002-11-28 08:43:14 51°21.669 2°51.872 24.915993 0.070381 0.355264  
2002-11-28 08:43:18 51°21.685 2°51.872 24.915993 0.070381 0.355264  
2002-11-28 08:43:24 51°21.71 2°51.873 25.588318 0.070381 0.355264  
2002-11-28 08:43:28 51°21.726 2°51.873 25.073713 0.070381 0.35527  
2002-11-28 08:43:34 51°21.751 2°51.874 23.954202 0.070381 0.355264  
2002-11-28 08:43:38 51°21.767 2°51.875 24.583283 0.070381 0.35527  
2002-11-28 08:43:44 51°21.792 2°51.876 24.442905 0.070381 0.355259  
2002-11-28 08:43:49 51°21.812 2°51.879 24.442905 0.070381 0.355259  
2002-11-28 08:43:54 51°21.833 2°51.882 23.830743 0.070381 0.355259  
2002-11-28 08:43:59 51°21.853 2°51.887 23.354478 0.070381 0.355259  
2002-11-28 08:44:05 51°21.878 2°51.891 23.899664 0.070381 0.355264  
2002-11-28 08:44:09 51°21.894 2°51.895 24.075502 0.070381 0.355259  
2002-11-28 08:44:15 51°21.918 2°51.903 24.016885 0.070381 0.355254  
2002-11-28 08:44:19 51°21.935 2°51.91 24.016885 0.070381 0.355254  
2002-11-28 08:44:25 51°21.958 2°51.923 24.601613 0.070381 0.355259  
2002-11-28 08:44:29 51°21.974 2°51.933 23.982144 0.070381 0.355259  
2002-11-28 08:44:35 51°21.997 2°51.947 24.181029 0.070381 0.35527  
2002-11-28 08:44:38 51°22.008 2°51.955 24.370502 0.070381 0.355264  
2002-11-28 08:44:45 51°22.034 2°51.975 24.433245 0.070381 0.355259  
2002-11-28 08:44:48 51°22.046 2°51.983 24.433245 0.070381 0.355259  
2002-11-28 08:44:54 51°22.068 2°52 24.153621 0.070381 0.355275  
2002-11-28 08:44:58 51°22.083 2°52.013 24.311438 0.070381 0.355264  
2002-11-28 08:45:04 51°22.104 2°52.033 25.183602 0.070381 0.355259  
2002-11-28 08:45:08 51°22.118 2°52.047 24.875668 0.070381 0.355275  
2002-11-28 08:45:14 51°22.138 2°52.069 24.991933 0.070381 0.355254  
2002-11-28 08:45:19 51°22.154 2°52.089 24.991933 0.070381 0.355254  
2002-11-28 08:45:25 51°22.173 2°52.116 24.150147 0.070381 0.35527  
2002-11-28 08:45:29 51°22.185 2°52.134 24.888256 0.070381 0.355264  
2002-11-28 08:45:34 51°22.198 2°52.159 24.169808 0.070381 0.355254  
2002-11-28 08:45:38 51°22.21 2°52.178 24.744867 0.070381 0.35527  
2002-11-28 08:45:45 51°22.228 2°52.213 24.71536 0.070381 0.355259  
2002-11-28 08:45:48 51°22.236 2°52.229 24.71536 0.070381 0.355259  
2002-11-28 08:45:55 51°22.252 2°52.267 23.6162 0.070381 0.355249  
2002-11-28 08:45:59 51°22.261 2°52.289 24.987177 0.070381 0.355259  
2002-11-28 08:46:05 51°22.273 2°52.323 23.616431 0.070381 0.355244  
2002-11-28 08:46:09 51°22.282 2°52.346 24.695391 0.070381 0.355259  
2002-11-28 08:46:14 51°22.293 2°52.375 24.254765 0.070381 0.355254  
2002-11-28 08:46:18 51°22.301 2°52.398 24.254765 0.070381 0.355254  
2002-11-28 08:46:25 51°22.315 2°52.438 24.322409 0.070381 0.355254  
2002-11-28 08:46:29 51°22.324 2°52.461 24.825903 0.070381 0.35527  
2002-11-28 08:46:34 51°22.335 2°52.489 23.918626 0.070381 0.355254  
2002-11-28 08:46:38 51°22.344 2°52.511 24.141976 0.070381 0.355254  
2002-11-28 08:46:45 51°22.359 2°52.551 24.271882 0.070381 0.355259  
2002-11-28 08:46:49 51°22.369 2°52.574 24.271882 0.070381 0.355259  
2002-11-28 08:46:54 51°22.379 2°52.601 24.316276 0.070381 0.355249  
2002-11-28 08:46:59 51°22.39 2°52.629 25.631881 0.070381 0.355254  
2002-11-28 08:47:05 51°22.404 2°52.662 24.301722 0.070381 0.355264  
2002-11-28 08:47:08 51°22.411 2°52.678 23.830819 0.070381 0.355259  
2002-11-28 08:47:14 51°22.424 2°52.711 24.58279 0.070381 0.355249  
2002-11-28 08:47:18 51°22.433 2°52.733 24.58279 0.070381 0.355249  
2002-11-28 08:47:25 51°22.449 2°52.772 24.466175 0.070381 0.355259  
2002-11-28 08:47:29 51°22.459 2°52.793 24.157401 0.070381 0.355259  
2002-11-28 08:47:34 51°22.47 2°52.82 24.024727 0.070381 0.355249  
2002-11-28 08:47:38 51°22.48 2°52.842 23.67199 0.070381 0.355259  
2002-11-28 08:47:44 51°22.495 2°52.874 23.998446 0.070381 0.355259  
2002-11-28 08:47:48 51°22.505 2°52.896 23.998446 0.070381 0.355259  
2002-11-28 08:47:54 51°22.519 2°52.929 24.264525 0.070381 0.355249  
2002-11-28 08:47:59 51°22.531 2°52.955 24.688115 0.070381 0.355264  
2002-11-28 08:48:05 51°22.545 2°52.988 23.940073 0.070381 0.355259  
2002-11-28 08:48:09 51°22.555 2°53.009 23.930346 0.070381 0.355259  
2002-11-28 08:48:14 51°22.567 2°53.036 24.162059 0.070381 0.355264  
2002-11-28 08:48:18 51°22.577 2°53.058 24.162059 0.070381 0.355264  
2002-11-28 08:48:25 51°22.594 2°53.095 23.592118 0.070381 0.355259  
2002-11-28 08:48:29 51°22.603 2°53.116 24.191371 0.070381 0.355244  
2002-11-28 08:48:34 51°22.615 2°53.143 23.162516 0.070381 0.355264  
2002-11-28 08:48:39 51°22.627 2°53.17 23.47594 0.070381 0.35527  
2002-11-28 08:48:45 51°22.642 2°53.202 23.943941 0.070381 0.355259  
2002-11-28 08:48:49 51°22.651 2°53.224 23.943941 0.070381 0.355259  
2002-11-28 08:48:54 51°22.663 2°53.251 23.980575 0.070381 0.355259  
2002-11-28 08:48:58 51°22.672 2°53.273 24.342175 0.070381 0.355259  
2002-11-28 08:49:05 51°22.689 2°53.311 24.135942 0.070381 0.355259  
2002-11-28 08:49:08 51°22.696 2°53.327 24.392424 0.070381 0.355254  
2002-11-28 08:49:14 51°22.71 2°53.359 23.925636 0.070381 0.35527  
2002-11-28 08:49:18 51°22.72 2°53.38 23.925636 0.070381 0.35527  
2002-11-28 08:49:24 51°22.734 2°53.413 23.888552 0.070381 0.355254  
2002-11-28 08:49:29 51°22.746 2°53.439 23.995882 0.070381 0.355254  
2002-11-28 08:49:34 51°22.758 2°53.466 23.987311 0.070381 0.355264  
2002-11-28 08:49:38 51°22.769 2°53.487 24.082725 0.070381 0.355264  
2002-11-28 08:49:44 51°22.783 2°53.519 24.491793 0.070381 0.355259  
2002-11-28 08:49:49 51°22.796 2°53.546 24.491793 0.070381 0.355259  
2002-11-28 08:49:54 51°22.809 2°53.572 24.370426 0.070381 0.355264  
2002-11-28 08:49:59 51°22.821 2°53.599 24.604535 0.070381 0.355259  
2002-11-28 08:50:04 51°22.834 2°53.626 25.359751 0.070381 0.35527  
2002-11-28 08:50:09 51°22.846 2°53.653 24.022011 0.070381 0.355254  
2002-11-28 08:50:14 51°22.858 2°53.68 25.738396 0.070381 0.355264  
2002-11-28 08:50:19 51°22.87 2°53.706 25.738396 0.070381 0.355264  
2002-11-28 08:50:25 51°22.886 2°53.739 25.116603 0.070381 0.35527  
2002-11-28 08:50:29 51°22.896 2°53.759 23.942945 0.070381 0.355275  
2002-11-28 08:50:35 51°22.91 2°53.792 24.659722 0.070381 0.355264  
2002-11-28 08:50:39 51°22.921 2°53.813 24.876424 0.070381 0.355275  
2002-11-28 08:50:44 51°22.933 2°53.84 23.943558 0.070381 0.355275  
2002-11-28 08:50:49 51°22.946 2°53.865 23.943558 0.070381 0.355275  
2002-11-28 08:50:54 51°22.958 2°53.892 25.229927 0.070381 0.355264  
2002-11-28 08:50:58 51°22.969 2°53.913 24.291205 0.070381 0.35527  
2002-11-28 08:51:05 51°22.986 2°53.951 25.15751 0.070381 0.355264  
2002-11-28 08:51:09 51°22.997 2°53.972 24.598464 0.070381 0.35527  
2002-11-28 08:51:14 51°23.009 2°54 23.381573 0.070381 0.355275  
2002-11-28 08:51:18 51°23.02 2°54.021 23.381573 0.070381 0.355275  
2002-11-28 08:51:25 51°23.038 2°54.058 24.475602 0.070381 0.355275  
2002-11-28 08:51:29 51°23.048 2°54.079 23.919967 0.070381 0.35527  
2002-11-28 08:51:35 51°23.063 2°54.111 24.300465 0.070381 0.355264  
2002-11-28 08:51:39 51°23.073 2°54.132 24.91928 0.070381 0.355275  
2002-11-28 08:51:45 51°23.088 2°54.164 24.823822 0.070381 0.355264  
2002-11-28 08:51:49 51°23.097 2°54.185 24.823822 0.070381 0.355264  
2002-11-28 08:51:55 51°23.112 2°54.216 24.265669 0.070381 0.355264  
2002-11-28 08:51:59 51°23.122 2°54.238 24.581879 0.070381 0.35527  
2002-11-28 08:52:05 51°23.137 2°54.27 25.012613 0.070381 0.355264  
2002-11-28 08:52:09 51°23.148 2°54.29 24.369169 0.070381 0.35527  
2002-11-28 08:52:14 51°23.16 2°54.316 24.555153 0.070381 0.35527  
2002-11-28 08:52:18 51°23.171 2°54.337 24.555153 0.070381 0.35527  
2002-11-28 08:52:25 51°23.189 2°54.373 24.590077 0.070381 0.355275  
2002-11-28 08:52:29 51°23.199 2°54.393 24.922831 0.070381 0.355275  
2002-11-28 08:52:35 51°23.214 2°54.424 25.175998 0.070381 0.355275  
2002-11-28 08:52:38 51°23.222 2°54.44 23.45528 0.070381 0.35527  
2002-11-28 08:52:44 51°23.237 2°54.471 24.499089 0.070381 0.355275  
2002-11-28 08:52:48 51°23.247 2°54.492 24.499089 0.070381 0.355275  
2002-11-28 08:52:54 51°23.262 2°54.523 24.442449 0.070381 0.35527  
2002-11-28 08:52:58 51°23.272 2°54.545 24.882699 0.070381 0.355275  
2002-11-28 08:53:04 51°23.287 2°54.576 24.859827 0.070381 0.35529  
2002-11-28 08:53:08 51°23.297 2°54.597 23.161433 0.070381 0.35527  
2002-11-28 08:53:14 51°23.311 2°54.628 24.379789 0.070381 0.35528  
2002-11-28 08:53:18 51°23.321 2°54.649 24.379789 0.070381 0.35528  
2002-11-28 08:53:24 51°23.337 2°54.681 24.600323 0.070381 0.355285  
2002-11-28 08:53:28 51°23.346 2°54.702 23.938886 0.070381 0.35527  
2002-11-28 08:53:34 51°23.361 2°54.734 24.559975 0.070381 0.355275  
2002-11-28 08:53:38 51°23.371 2°54.755 24.545926 0.070381 0.355285  
2002-11-28 08:53:44 51°23.386 2°54.786 23.556479 0.070381 0.355275  
2002-11-28 08:53:48 51°23.396 2°54.806 23.556479 0.070381 0.355275  
2002-11-28 08:53:54 51°23.411 2°54.838 24.632494 0.070381 0.355275  
2002-11-28 08:53:59 51°23.424 2°54.864 24.795217 0.070381 0.355285  
2002-11-28 08:54:04 51°23.436 2°54.891 22.683049 0.070381 0.35528  
2002-11-28 08:54:08 51°23.446 2°54.911 24.888256 0.070381 0.35528  
2002-11-28 08:54:14 51°23.46 2°54.942 24.7638 0.070381 0.35528  
2002-11-28 08:54:18 51°23.47 2°54.963 24.7638 0.070381 0.35528  
2002-11-28 08:54:24 51°23.486 2°54.995 24.334635 0.070381 0.355295  
2002-11-28 08:54:28 51°23.496 2°55.015 26.444237 0.070381 0.35528  
2002-11-28 08:54:34 51°23.51 2°55.046 23.507034 0.070381 0.355275  
2002-11-28 08:54:39 51°23.522 2°55.073 24.275923 0.070381 0.3553  
2002-11-28 08:54:44 51°23.536 2°55.099 24.235318 0.070381 0.355275  
2002-11-28 08:54:48 51°23.545 2°55.12 24.235318 0.070381 0.355275  
2002-11-28 08:54:54 51°23.56 2°55.15 25.047054 0.070381 0.35528  
2002-11-28 08:54:58 51°23.571 2°55.173 24.803581 0.070381 0.35529  
2002-11-28 08:55:04 51°23.588 2°55.201 24.71589 0.070381 0.355295  
2002-11-28 08:55:08 51°23.598 2°55.222 23.737108 0.070381 0.35528  
2002-11-28 08:55:14 51°23.615 2°55.25 25.052032 0.070381 0.3553  
2002-11-28 08:55:18 51°23.626 2°55.269 25.052032 0.070381 0.3553  
2002-11-28 08:55:24 51°23.643 2°55.298 23.842707 0.070381 0.3553  
2002-11-28 08:55:28 51°23.655 2°55.316 24.583131 0.070381 0.355295  
2002-11-28 08:55:34 51°23.672 2°55.344 23.937048 0.070381 0.355285  
2002-11-28 08:55:39 51°23.687 2°55.366 24.339395 0.070381 0.355295  
2002-11-28 08:55:44 51°23.703 2°55.388 24.2164 0.070381 0.35529  
2002-11-28 08:55:48 51°23.715 2°55.405 24.2164 0.070381 0.35529  
2002-11-28 08:55:54 51°23.734 2°55.43 24.31719 0.070381 0.355285  
2002-11-28 08:55:59 51°23.749 2°55.451 24.299474 0.070381 0.355285  
2002-11-28 08:56:04 51°23.765 2°55.472 24.816559 0.070381 0.35529  
2002-11-28 08:56:09 51°23.782 2°55.493 25.237902 0.070381 0.35529  
2002-11-28 08:56:13 51°23.795 2°55.509 24.823179 0.070381 0.3553  
2002-11-28 08:56:19 51°23.815 2°55.531 24.823179 0.070381 0.3553  
2002-11-28 08:56:25 51°23.836 2°55.551 24.755621 0.070381 0.355295  
2002-11-28 08:56:29 51°23.85 2°55.566 25.561958 0.070381 0.3553  
2002-11-28 08:56:35 51°23.872 2°55.583 25.044602 0.070381 0.355295  
2002-11-28 08:56:38 51°23.883 2°55.592 24.394441 0.070381 0.35529  
2002-11-28 08:56:44 51°23.906 2°55.606 25.294492 0.070381 0.3553  
2002-11-28 08:56:48 51°23.921 2°55.616 25.294492 0.070381 0.3553  
2002-11-28 08:56:55 51°23.948 2°55.63 24.363079 0.070381 0.355295  
2002-11-28 08:56:59 51°23.964 2°55.639 25.096518 0.070381 0.355295  
2002-11-28 08:57:04 51°23.983 2°55.647 26.341333 0.070381 0.355306  
2002-11-28 08:57:09 51°24.003 2°55.657 24.85892 0.070381 0.3553  
2002-11-28 08:57:15 51°24.027 2°55.666 25.717434 0.070381 0.355295  
2002-11-28 08:57:19 51°24.043 2°55.673 25.717434 0.070381 0.355295  
2002-11-28 08:57:24 51°24.063 2°55.681 25.904385 0.070381 0.355295  
2002-11-28 08:57:28 51°24.079 2°55.687 25.83058 0.070381 0.355295  
2002-11-28 08:57:34 51°24.103 2°55.694 25.092146 0.070381 0.355295  
2002-11-28 08:57:38 51°24.119 2°55.698 24.848786 0.070381 0.355316  
2002-11-28 08:57:45 51°24.147 2°55.705 25.97428 0.070381 0.355306  
2002-11-28 08:57:48 51°24.159 2°55.706 25.97428 0.070381 0.355306  
2002-11-28 08:57:54 51°24.183 2°55.71 24.955162 0.070381 0.355316  
2002-11-28 08:57:58 51°24.199 2°55.713 25.305165 0.070381 0.355316  
2002-11-28 08:58:04 51°24.224 2°55.717 25.690971 0.070381 0.3553  
2002-11-28 08:58:08 51°24.24 2°55.72 26.108557 0.070381 0.3553  
2002-11-28 08:58:14 51°24.265 2°55.725 26.439426 0.070381 0.355295  
2002-11-28 08:58:19 51°24.285 2°55.727 26.439426 0.070381 0.355295  
2002-11-28 08:58:24 51°24.305 2°55.731 26.432469 0.070381 0.3553  
2002-11-28 08:58:28 51°24.322 2°55.734 26.166412 0.070381 0.355295  
2002-11-28 08:58:34 51°24.346 2°55.738 24.85718 0.070381 0.355295  
2002-11-28 08:58:38 51°24.362 2°55.741 25.651408 0.070381 0.3553  
2002-11-28 08:58:44 51°24.387 2°55.746 25.836549 0.070381 0.3553  
2002-11-28 08:58:48 51°24.403 2°55.749 25.836549 0.070381 0.3553  
2002-11-28 08:58:54 51°24.428 2°55.753 26.65718 0.070381 0.355306  
2002-11-28 08:58:58 51°24.444 2°55.755 25.686036 0.070381 0.355306  
2002-11-28 08:59:04 51°24.468 2°55.758 26.451378 0.070381 0.3553  
2002-11-28 08:59:08 51°24.484 2°55.761 26.249231 0.070381 0.3553  
2002-11-28 08:59:14 51°24.509 2°55.764 25.747399 0.070381 0.355311  
2002-11-28 08:59:19 51°24.529 2°55.766 25.747399 0.070381 0.355311  
2002-11-28 08:59:24 51°24.55 2°55.769 25.562408 0.070381 0.355295  
2002-11-28 08:59:28 51°24.566 2°55.771 25.348709 0.070381 0.355306  
2002-11-28 08:59:34 51°24.59 2°55.775 24.765617 0.070381 0.355306  
2002-11-28 08:59:38 51°24.606 2°55.777 26.601998 0.070381 0.3553  
2002-11-28 08:59:44 51°24.631 2°55.782 26.334403 0.070381 0.355306  
2002-11-28 08:59:48 51°24.647 2°55.783 26.334403 0.070381 0.355306  
2002-11-28 08:59:54 51°24.672 2°55.788 26.694325 0.070381 0.355306  
2002-11-28 08:59:58 51°24.688 2°55.789 26.630092 0.070381 0.355306  
2002-11-28 09:00:04 51°24.712 2°55.794 26.278684 0.070381 0.355306  
2002-11-28 09:00:08 51°24.729 2°55.794 25.545628 0.070381 0.355311  
2002-11-28 09:00:14 51°24.753 2°55.797 26.105249 0.070381 0.355321  
2002-11-28 09:00:18 51°24.77 2°55.797 26.105249 0.070381 0.355321  
2002-11-28 09:00:25 51°24.798 2°55.801 26.480972 0.070381 0.3553  
2002-11-28 09:00:28 51°24.81 2°55.801 25.763498 0.070381 0.355321  
2002-11-28 09:00:34 51°24.835 2°55.803 26.369712 0.070381 0.355311  
2002-11-28 09:00:39 51°24.855 2°55.803 26.343297 0.070381 0.355311  
2002-11-28 09:00:44 51°24.876 2°55.806 25.584462 0.070381 0.355311  
2002-11-28 09:00:48 51°24.892 2°55.806 25.584462 0.070381 0.355311  
2002-11-28 09:00:54 51°24.916 2°55.808 26.369082 0.070381 0.355306  
2002-11-28 09:00:59 51°24.937 2°55.81 26.411963 0.070381 0.355316  
2002-11-28 09:01:04 51°24.957 2°55.81 26.287806 0.070381 0.355311  
2002-11-28 09:01:08 51°24.974 2°55.813 24.225021 0.070381 0.355306  
2002-11-28 09:01:12 51°24.99 2°55.813 24.282173 0.070381 0.355311  
2002-11-28 09:01:18 51°25.014 2°55.817 24.282173 0.070381 0.355311  
2002-11-28 09:01:24 51°25.039 2°55.817 25.161991 0.070381 0.355316  
2002-11-28 09:01:28 51°25.056 2°55.819 24.2164 0.070381 0.355311  
2002-11-28 09:01:34 51°25.08 2°55.82 24.421568 0.070381 0.355321  
2002-11-28 09:01:39 51°25.101 2°55.823 25.452936 0.070381 0.355306  
2002-11-28 09:01:45 51°25.125 2°55.824 25.962698 0.070381 0.355316  
2002-11-28 09:01:48 51°25.137 2°55.827 25.962698 0.070381 0.355316  
2002-11-28 09:01:52 51°25.154 2°55.828 24.63788 0.070381 0.355311  
2002-11-28 09:01:58 51°25.178 2°55.83 26.048128 0.070381 0.355311  
2002-11-28 09:02:04 51°25.203 2°55.832 25.839945 0.070381 0.355306  
2002-11-28 09:02:08 51°25.219 2°55.835 24.800705 0.070381 0.355311  
2002-11-28 09:02:14 51°25.243 2°55.837 24.862814 0.070381 0.355311  
2002-11-28 09:02:19 51°25.264 2°55.838 24.862814 0.070381 0.355311  
2002-11-28 09:02:24 51°25.284 2°55.84 26.089857 0.070381 0.355311  
2002-11-28 09:02:29 51°25.305 2°55.843 25.640673 0.070381 0.355306  
2002-11-28 09:02:34 51°25.325 2°55.844 25.270921 0.070381 0.355311  
2002-11-28 09:02:39 51°25.346 2°55.845 24.837137 0.070381 0.355306  
2002-11-28 09:02:44 51°25.367 2°55.847 25.391026 0.070381 0.355316  
2002-11-28 09:02:48 51°25.383 2°55.848 25.391026 0.070381 0.355316  
2002-11-28 09:02:54 51°25.408 2°55.851 25.177654 0.070381 0.355311  
2002-11-28 09:02:58 51°25.424 2°55.853 25.245876 0.070381 0.355311  
2002-11-28 09:03:04 51°25.448 2°55.855 26.271525 0.070381 0.355311  
2002-11-28 09:03:08 51°25.464 2°55.856 25.183527 0.070381 0.355321  
2002-11-28 09:03:14 51°25.489 2°55.858 24.407454 0.070381 0.355316  
2002-11-28 09:03:18 51°25.506 2°55.859 24.407454 0.070381 0.355316  
2002-11-28 09:03:24 51°25.53 2°55.862 24.93405 0.070381 0.355306  
2002-11-28 09:03:28 51°25.547 2°55.862 24.907038 0.070381 0.355311  
2002-11-28 09:03:34 51°25.571 2°55.865 24.469482 0.070381 0.355306  
2002-11-28 09:03:38 51°25.587 2°55.866 25.403637 0.070381 0.355311  
2002-11-28 09:03:44 51°25.612 2°55.869 24.340081 0.070381 0.355311  
2002-11-28 09:03:48 51°25.628 2°55.871 24.340081 0.070381 0.355311  
2002-11-28 09:03:52 51°25.644 2°55.872 24.974116 0.070381 0.355316  
2002-11-28 09:03:59 51°25.673 2°55.876 25.652269 0.070381 0.355311  
2002-11-28 09:04:04 51°25.694 2°55.877 25.380026 0.070381 0.355321  
2002-11-28 09:04:08 51°25.71 2°55.879 25.714669 0.070381 0.355306  
2002-11-28 09:04:14 51°25.734 2°55.883 25.539335 0.070381 0.355321  
2002-11-28 09:04:19 51°25.755 2°55.882 25.539335 0.070381 0.355321  
2002-11-28 09:04:24 51°25.776 2°55.885 25.214426 0.070381 0.355311  
2002-11-28 09:04:28 51°25.793 2°55.886 24.675493 0.070381 0.355316  
2002-11-28 09:04:35 51°25.822 2°55.889 25.320196 0.070381 0.355311  
2002-11-28 09:04:38 51°25.834 2°55.889 25.514044 0.070381 0.355316  
2002-11-28 09:04:44 51°25.858 2°55.89 25.105073 0.070381 0.355311  
2002-11-28 09:04:48 51°25.875 2°55.893 25.105073 0.070381 0.355311  
2002-11-28 09:04:54 51°25.899 2°55.895 26.215758 0.070381 0.355316  
2002-11-28 09:04:58 51°25.915 2°55.897 25.572855 0.070381 0.355316  
2002-11-28 09:05:05 51°25.944 2°55.899 25.475586 0.070381 0.355326  
2002-11-28 09:05:08 51°25.956 2°55.901 24.491413 0.070381 0.355321  
2002-11-28 09:05:14 51°25.98 2°55.904 25.235645 0.070381 0.355321  
2002-11-28 09:05:18 51°25.997 2°55.907 25.235645 0.070381 0.355321  
2002-11-28 09:05:23 51°26.017 2°55.908 25.399283 0.070381 0.355326  
2002-11-28 09:05:29 51°26.041 2°55.912 25.207314 0.070381 0.355311  
2002-11-28 09:05:34 51°26.062 2°55.914 24.654262 0.070381 0.355316  
2002-11-28 09:05:39 51°26.082 2°55.915 24.932501 0.070381 0.355316  
2002-11-28 09:05:44 51°26.103 2°55.918 25.576375 0.070381 0.355316  
2002-11-28 09:05:49 51°26.123 2°55.919 25.576375 0.070381 0.355316  
2002-11-28 09:05:52 51°26.136 2°55.921 23.750009 0.070381 0.355316  
2002-11-28 09:05:59 51°26.164 2°55.922 24.441954 0.070381 0.355316  
2002-11-28 09:06:05 51°26.189 2°55.924 25.641271 0.070381 0.355316  
2002-11-28 09:06:09 51°26.205 2°55.925 25.138416 0.070381 0.355316  
2002-11-28 09:06:14 51°26.226 2°55.928 24.070303 0.070381 0.355316  
2002-11-28 09:06:19 51°26.246 2°55.929 24.070303 0.070381 0.355316  
2002-11-28 09:06:24 51°26.267 2°55.932 24.071527 0.070381 0.355316  
2002-11-28 09:06:28 51°26.283 2°55.933 26.202469 0.070381 0.355321  
2002-11-28 09:06:34 51°26.307 2°55.936 24.979137 0.070381 0.355321  
2002-11-28 09:06:39 51°26.328 2°55.937 25.590265 0.070381 0.355316  
2002-11-28 09:06:44 51°26.348 2°55.941 25.291372 0.070381 0.355321  
2002-11-28 09:06:48 51°26.364 2°55.941 25.291372 0.070381 0.355321  
2002-11-28 09:06:52 51°26.38 2°55.943 26.109115 0.070381 0.355311  
2002-11-28 09:06:59 51°26.409 2°55.946 24.644365 0.070381 0.355326  
2002-11-28 09:07:05 51°26.432 2°55.949 26.233647 0.070381 0.355316  
2002-11-28 09:07:09 51°26.448 2°55.951 24.861264 0.070381 0.355321  
2002-11-28 09:07:14 51°26.469 2°55.955 25.229814 0.070381 0.355321  
2002-11-28 09:07:19 51°26.489 2°55.955 25.229814 0.070381 0.355321  
2002-11-28 09:07:24 51°26.509 2°55.959 25.009179 0.070381 0.355306  
2002-11-28 09:07:28 51°26.525 2°55.96 25.701027 0.070381 0.355326  
2002-11-28 09:07:34 51°26.549 2°55.963 25.139583 0.070381 0.355316  
2002-11-28 09:07:38 51°26.565 2°55.965 25.264754 0.070381 0.355321  
2002-11-28 09:07:45 51°26.594 2°55.966 24.490121 0.070381 0.355321  
2002-11-28 09:07:48 51°26.606 2°55.967 24.490121 0.070381 0.355321  
2002-11-28 09:07:55 51°26.635 2°55.971 24.739603 0.070381 0.355316  
2002-11-28 09:07:59 51°26.651 2°55.972 25.331881 0.070381 0.355316  
2002-11-28 09:08:05 51°26.675 2°55.974 25.086454 0.070381 0.355316  
2002-11-28 09:08:08 51°26.688 2°55.975 24.996197 0.070381 0.355321  
2002-11-28 09:08:14 51°26.712 2°55.977 22.674242 0.070381 0.355316  
2002-11-28 09:08:19 51°26.732 2°55.98 22.674242 0.070381 0.355316  
2002-11-28 09:08:23 51°26.748 2°55.98 25.867734 0.070381 0.355326  
2002-11-28 09:08:28 51°26.769 2°55.984 25.629075 0.070381 0.355311  
2002-11-28 09:08:34 51°26.793 2°55.986 24.719565 0.070381 0.355316  
2002-11-28 09:08:39 51°26.813 2°55.989 25.680466 0.070381 0.355321  
2002-11-28 09:08:45 51°26.838 2°55.992 25.396131 0.070381 0.355316  
2002-11-28 09:08:48 51°26.85 2°55.994 25.396131 0.070381 0.355316  
2002-11-28 09:08:52 51°26.866 2°55.995 24.54304 0.070381 0.355326  
2002-11-28 09:08:58 51°26.89 2°56 24.790714 0.070381 0.355321  
2002-11-28 09:09:04 51°26.914 2°56.003 25.651184 0.070381 0.355316  
2002-11-28 09:09:08 51°26.93 2°56.005 24.482216 0.070381 0.355326  
2002-11-28 09:09:14 51°26.955 2°56.007 26.718956 0.070381 0.355321  
2002-11-28 09:09:18 51°26.971 2°56.01 26.718956 0.070381 0.355321  
2002-11-28 09:09:24 51°26.995 2°56.012 25.382767 0.070381 0.355321  
2002-11-28 09:09:28 51°27.011 2°56.015 25.625333 0.070381 0.355316  
2002-11-28 09:09:32 51°27.028 2°56.017 25.601794 0.070381 0.355331  
2002-11-28 09:09:39 51°27.056 2°56.019 25.200126 0.070381 0.355321  
2002-11-28 09:09:45 51°27.081 2°56.022 25.169447 0.070381 0.355326  
2002-11-28 09:09:48 51°27.093 2°56.024 25.169447 0.070381 0.355326  
2002-11-28 09:09:54 51°27.117 2°56.027 24.830291 0.070381 0.355316  
2002-11-28 09:09:58 51°27.134 2°56.028 25.362004 0.070381 0.355326  
2002-11-28 09:10:04 51°27.158 2°56.033 25.233501 0.070381 0.355311  
2002-11-28 09:10:08 51°27.174 2°56.034 25.269455 0.070381 0.355336  
2002-11-28 09:10:14 51°27.199 2°56.038 25.136306 0.070381 0.355316  
2002-11-28 09:10:18 51°27.215 2°56.04 25.136306 0.070381 0.355316  
2002-11-28 09:10:24 51°27.24 2°56.043 25.086907 0.070381 0.355331  
2002-11-28 09:10:28 51°27.256 2°56.045 25.436244 0.070381 0.355336  
2002-11-28 09:10:34 51°27.281 2°56.048 25.23241 0.070381 0.355321  
2002-11-28 09:10:39 51°27.301 2°56.049 24.658812 0.070381 0.355341  
2002-11-28 09:10:44 51°27.322 2°56.051 25.604601 0.070381 0.355321  
2002-11-28 09:10:48 51°27.338 2°56.053 25.604601 0.070381 0.355321  
2002-11-28 09:10:54 51°27.362 2°56.057 25.367186 0.070381 0.355326  
2002-11-28 09:10:59 51°27.381 2°56.058 25.617176 0.070381 0.355326  
2002-11-28 09:11:04 51°27.398 2°56.061 25.582665 0.070381 0.355321  
2002-11-28 09:11:08 51°27.411 2°56.062 25.508723 0.070381 0.355326  
2002-11-28 09:11:14 51°27.43 2°56.062 23.922265 0.070381 0.355347  
2002-11-28 09:11:18 51°27.441 2°56.06 23.922265 0.070381 0.355347  
2002-11-28 09:11:24 51°27.458 2°56.057 25.065343 0.070381 0.355341  
2002-11-28 09:11:28 51°27.469 2°56.055 24.950215 0.070381 0.355336  
2002-11-28 09:11:34 51°27.486 2°56.053 24.696301 0.070381 0.355316  
2002-11-28 09:11:39 51°27.498 2°56.051 23.70373 0.070381 0.355331  
2002-11-28 09:11:45 51°27.511 2°56.044 24.984761 0.070381 0.355341  
2002-11-28 09:11:49 51°27.519 2°56.039 24.984761 0.070381 0.355341  
2002-11-28 09:11:54 51°27.527 2°56.03 24.302484 0.070381 0.355352  
2002-11-28 09:11:59 51°27.535 2°56.021 24.740625 0.070381 0.355357  
2002-11-28 09:12:04 51°27.54 2°56.011 25.019593 0.070381 0.355347  
2002-11-28 09:12:08 51°27.544 2°56.003 24.742405 0.070381 0.355352  
2002-11-28 09:12:14 51°27.549 2°55.99 24.384014 0.070381 0.355352  
2002-11-28 09:12:18 51°27.551 2°55.982 24.384014 0.070381 0.355352  
2002-11-28 09:12:24 51°27.553 2°55.969 24.371377 0.070381 0.355352  
2002-11-28 09:12:28 51°27.554 2°55.961 24.211631 0.070381 0.355341  
2002-11-28 09:12:35 51°27.553 2°55.947 24.779586 0.070381 0.355352  
2002-11-28 09:12:39 51°27.552 2°55.94 23.687516 0.070381 0.355347  
2002-11-28 09:12:44 51°27.551 2°55.932 24.184693 0.070381 0.355341  
2002-11-28 09:12:48 51°27.549 2°55.926 24.184693 0.070381 0.355341  
2002-11-28 09:12:54 51°27.546 2°55.917 24.684931 0.070381 0.355341  
2002-11-28 09:12:59 51°27.542 2°55.912 25.526522 0.070381 0.355341  
2002-11-28 09:13:05 51°27.537 2°55.906 24.595655 0.070381 0.355341  
2002-11-28 09:13:09 51°27.534 2°55.904 24.377924 0.070381 0.355336  
2002-11-28 09:13:15 51°27.528 2°55.902 24.597932 0.070381 0.355341  
2002-11-28 09:13:19 51°27.524 2°55.902 24.597932 0.070381 0.355341  
2002-11-28 09:13:24 51°27.52 2°55.902 23.911731 0.070381 0.355336  
2002-11-28 09:13:29 51°27.515 2°55.904 24.661845 0.070381 0.355331  
2002-11-28 09:13:33 51°27.51 2°55.907 24.63257 0.070381 0.355331  
2002-11-28 09:13:39 51°27.504 2°55.911 24.619104 0.070381 0.355326  
2002-11-28 09:13:45 51°27.496 2°55.917 24.79499 0.070381 0.355321  
2002-11-28 09:13:49 51°27.491 2°55.92 24.79499 0.070381 0.355321  
2002-11-28 09:13:55 51°27.484 2°55.926 24.421378 0.070381 0.355316  
2002-11-28 09:13:59 51°27.478 2°55.93 24.440738 0.070381 0.355316  
2002-11-28 09:14:05 51°27.47 2°55.935 23.3188 0.070381 0.355316  
2002-11-28 09:14:09 51°27.464 2°55.938 23.983713 0.070381 0.355316  
2002-11-28 09:14:14 51°27.457 2°55.941 23.947923 0.070381 0.355321  
2002-11-28 09:14:19 51°27.449 2°55.944 23.947923 0.070381 0.355321  
2002-11-28 09:14:25 51°27.44 2°55.948 25.040717 0.070381 0.355326  
2002-11-28 09:14:29 51°27.434 2°55.95 24.609391 0.070381 0.355331  
2002-11-28 09:14:35 51°27.425 2°55.956 24.082572 0.070381 0.355336  
2002-11-28 09:14:39 51°27.418 2°55.959 23.801092 0.070381 0.355331  
2002-11-28 09:14:45 51°27.41 2°55.967 23.992017 0.070381 0.355336  
2002-11-28 09:14:48 51°27.405 2°55.97 23.992017 0.070381 0.355336  
2002-11-28 09:14:54 51°27.397 2°55.98 24.275008 0.070381 0.355336  
2002-11-28 09:14:58 51°27.393 2°55.988 25.052673 0.070381 0.355357  
2002-11-28 09:15:04 51°27.386 2°56.001 24.30858 0.070381 0.355357  
2002-11-28 09:15:08 51°27.382 2°56.011 24.210182 0.070381 0.355357  
2002-11-28 09:15:14 51°27.377 2°56.026 24.1808 0.070381 0.355367  
2002-11-28 09:15:18 51°27.373 2°56.036 24.1808 0.070381 0.355367  
2002-11-28 09:15:24 51°27.368 2°56.053 24.312847 0.070381 0.355362  
2002-11-28 09:15:28 51°27.365 2°56.063 23.325829 0.070381 0.355352  
2002-11-28 09:15:34 51°27.361 2°56.078 23.89997 0.070381 0.355357  
2002-11-28 09:15:38 51°27.359 2°56.087 25.077558 0.070381 0.355357  
2002-11-28 09:15:44 51°27.356 2°56.099 24.337301 0.070381 0.355347  
2002-11-28 09:15:48 51°27.354 2°56.106 24.337301 0.070381 0.355347  
2002-11-28 09:15:54 51°27.353 2°56.114 25.020309 0.070381 0.355357  
2002-11-28 09:15:59 51°27.353 2°56.12 24.623542 0.070381 0.355362  
2002-11-28 09:16:04 51°27.354 2°56.124 24.282669 0.070381 0.355367  
2002-11-28 09:16:08 51°27.354 2°56.126 25.257008 0.070381 0.355362  
2002-11-28 09:16:14 51°27.356 2°56.129 24.629232 0.070381 0.355362  
2002-11-28 09:16:19 51°27.357 2°56.131 24.629232 0.070381 0.355362  
2002-11-28 09:16:24 51°27.359 2°56.133 25.033287 0.070381 0.355362  
2002-11-28 09:16:28 51°27.36 2°56.135 25.25242 0.070381 0.355357  
2002-11-28 09:16:34 51°27.362 2°56.137 25.651558 0.070381 0.355347  
2002-11-28 09:16:38 51°27.364 2°56.139 24.579374 0.070381 0.355352  
2002-11-28 09:16:44 51°27.366 2°56.141 25.195271 0.070381 0.355352  
2002-11-28 09:16:48 51°27.367 2°56.143 25.195271 0.070381 0.355352  
2002-11-28 09:16:54 51°27.369 2°56.145 24.793741 0.070381 0.355352  
2002-11-28 09:16:59 51°27.371 2°56.148 24.454655 0.070381 0.355352  
2002-11-28 09:17:04 51°27.373 2°56.15 24.176373 0.070381 0.355357  
2002-11-28 09:17:11 51°27.375 2°56.153 25.447985 0.070381 0.355357  
2002-11-28 09:17:15 51°27.377 2°56.155 25.56986 0.070381 0.355357  
2002-11-28 09:17:19 51°27.378 2°56.156 25.56986 0.070381 0.355357  
2002-11-28 09:17:25 51°27.38 2°56.159 25.113739 0.070381 0.355357  
2002-11-28 09:17:29 51°27.381 2°56.161 25.667341 0.070381 0.355357  
2002-11-28 09:17:35 51°27.384 2°56.164 25.331618 0.070381 0.355362  
2002-11-28 09:17:39 51°27.385 2°56.166 25.455899 0.070381 0.355357  
2002-11-28 09:17:45 51°27.387 2°56.168 24.896003 0.070381 0.355357  
2002-11-28 09:17:49 51°27.388 2°56.17 24.896003 0.070381 0.355357  
2002-11-28 09:17:55 51°27.39 2°56.173 24.406351 0.070381 0.355357  
2002-11-28 09:17:59 51°27.392 2°56.175 24.431838 0.070381 0.355352  
2002-11-28 09:18:05 51°27.394 2°56.178 25.860536 0.070381 0.355357  
2002-11-28 09:18:09 51°27.396 2°56.181 25.119354 0.070381 0.355362  
2002-11-28 09:18:15 51°27.398 2°56.184 24.598957 0.070381 0.355362  
2002-11-28 09:18:19 51°27.399 2°56.186 24.598957 0.070381 0.355362  
2002-11-28 09:18:25 51°27.401 2°56.189 24.880318 0.070381 0.355357  
2002-11-28 09:18:29 51°27.403 2°56.191 25.154949 0.070381 0.355352  
2002-11-28 09:18:35 51°27.405 2°56.194 24.845722 0.070381 0.355352  
2002-11-28 09:18:39 51°27.407 2°56.196 25.523824 0.070381 0.355347  
2002-11-28 09:18:45 51°27.409 2°56.199 25.06753 0.070381 0.355352  
2002-11-28 09:18:49 51°27.411 2°56.201 25.06753 0.070381 0.355352  
2002-11-28 09:18:55 51°27.413 2°56.204 24.539698 0.070381 0.355357  
2002-11-28 09:18:59 51°27.415 2°56.207 24.734414 0.070381 0.355352  
2002-11-28 09:19:05 51°27.417 2°56.21 24.045033 0.070381 0.355357  
2002-11-28 09:19:09 51°27.418 2°56.212 25.962959 0.070381 0.355357  
2002-11-28 09:19:15 51°27.42 2°56.215 24.579374 0.070381 0.355357  
2002-11-28 09:19:19 51°27.422 2°56.217 24.579374 0.070381 0.355357  
2002-11-28 09:19:25 51°27.424 2°56.22 24.82927 0.070381 0.355362  
2002-11-28 09:19:29 51°27.426 2°56.222 24.644251 0.070381 0.355352  
2002-11-28 09:19:35 51°27.428 2°56.225 24.115432 0.070381 0.355357  
2002-11-28 09:19:39 51°27.429 2°56.227 24.833166 0.070381 0.355357  
2002-11-28 09:19:45 51°27.431 2°56.231 24.952103 0.070381 0.355357  
2002-11-28 09:19:49 51°27.433 2°56.233 24.952103 0.070381 0.355357  
2002-11-28 09:19:55 51°27.435 2°56.236 24.809294 0.070381 0.355362  
2002-11-28 09:19:59 51°27.436 2°56.238 25.547351 0.070381 0.355357  
2002-11-28 09:20:05 51°27.438 2°56.241 25.117319 0.070381 0.355362  
2002-11-28 09:20:10 51°27.44 2°56.244 25.605387 0.070381 0.355367  
2002-11-28 09:20:15 51°27.441 2°56.246 24.032108 0.070381 0.355367  
2002-11-28 09:20:19 51°27.443 2°56.248 24.032108 0.070381 0.355367  
2002-11-28 09:20:25 51°27.445 2°56.252 24.751305 0.070381 0.355362  
2002-11-28 09:20:29 51°27.446 2°56.254 25.432455 0.070381 0.355362  
2002-11-28 09:20:35 51°27.448 2°56.257 24.567834 0.070381 0.355367  
2002-11-28 09:20:39 51°27.45 2°56.259 25.53439 0.070381 0.355367  
2002-11-28 09:20:45 51°27.451 2°56.263 26.194746 0.070381 0.355362  
2002-11-28 09:20:48 51°27.452 2°56.264 26.194746 0.070381 0.355362  
2002-11-28 09:20:54 51°27.454 2°56.268 24.567454 0.070381 0.355372  
2002-11-28 09:20:58 51°27.456 2°56.27 25.03951 0.070381 0.355372  
2002-11-28 09:21:05 51°27.458 2°56.274 25.004726 0.070381 0.355377  
2002-11-28 09:21:08 51°27.459 2°56.276 25.284004 0.070381 0.355382  
2002-11-28 09:21:14 51°27.461 2°56.279 25.959159 0.070381 0.355372  
2002-11-28 09:21:18 51°27.462 2°56.281 25.959159 0.070381 0.355372  
2002-11-28 09:21:24 51°27.464 2°56.285 24.792114 0.070381 0.355377  
2002-11-28 09:21:28 51°27.465 2°56.287 23.637468 0.070381 0.355367  
2002-11-28 09:21:32 51°27.467 2°56.289 25.343526 0.070381 0.355372  
2002-11-28 09:21:38 51°27.469 2°56.293 24.858995 0.070381 0.355372  
2002-11-28 09:21:44 51°27.471 2°56.296 25.045394 0.070381 0.355377  
2002-11-28 09:21:48 51°27.472 2°56.298 25.045394 0.070381 0.355377